Location: Washington
(38.8950°N, 77.0367°W)
Time: 00:37:06
(UTC-04:00)

N. Korean satellite - Visible Passes

Search period start: 27 August 2016 00:00
Search period end: 06 September 2016 00:00
Orbit: 464 x 524 km, 97.2° (Epoch: 26 August)

Date Brightness Start Highest point End Pass type
(mag) Time Alt. Az. Time Alt. Az. Time Alt. Az.
29 Aug 9.8 20:52:42 10° WSW 20:54:18 12° W 20:55:53 10° WNW visible
30 Aug 9.2 20:29:41 10° SSW 20:32:36 23° W 20:35:32 10° NW visible
31 Aug 7.9 20:07:30 10° S 20:10:59 43° W 20:14:26 10° NNW visible
03 Sep 9.6 20:37:29 10° SW 20:40:01 18° W 20:42:32 10° NW visible
04 Sep 8.4 20:15:04 10° SSW 20:18:22 33° W 20:21:37 10° NNW visible
05 Sep 6.9 19:53:11 10° S 19:56:45 69° W 20:00:17 10° NNW visible
